HB3YKO-13 Weather Reports


Display with metric or nautical units.
time (UTC)temp
F
wind
direction
speed
MPH
gust
MPH
rain 1hr
in
rain 24hr
in
rain mn
in
humidity
%
barometer
mb
20260505124941 0 123 10.0 11.0 0.00 0.00 0.00 75
20260505124441 0 127 4.0 15.0 0.00 0.00 0.00 75
20260505123941 0 104 2.0 12.0 0.00 0.01 0.00 78
20260505123441 0 118 7.0 12.0 0.00 0.01 0.00 77
20260505122941 0 140 4.0 11.0 0.00 0.01 0.00 75
20260505122441 0 240 4.0 10.0 0.00 0.01 0.00 75
20260505121941 0 180 6.0 15.0 0.00 0.01 0.00 77
20260505121441 0 285 2.0 7.0 0.00 0.01 0.00 76
20260505120941 0 40 1.0 9.0 0.00 0.01 0.00 77
20260505120441 0 217 6.0 12.0 0.00 0.01 0.00 76
20260505115941 0 347 1.0 6.0 0.00 0.01 0.00 82
20260505115441 0 255 1.0 8.0 0.00 0.01 0.00 85
20260505114941 0 106 0.0 7.0 0.00 0.01 0.00 85
20260505114442 0 170 0.0 5.0 0.00 0.01 0.00 85
20260505113942 0 185 3.0 5.0 0.00 0.01 0.00 86
20260505113442 0 88 3.0 6.0 0.00 0.01 0.00 86
20260505112942 0 105 0.0 9.0 0.00 0.01 0.00 87
20260505112442 0 37 0.0 5.0 0.00 0.01 0.00 89
20260505111942 0 14 1.0 5.0 0.00 0.01 0.00 89
20260505111442 0 52 0.0 8.0 0.00 0.01 0.00 91
20260505110942 0 216 3.0 5.0 0.00 0.01 0.00 91
20260505110442 0 64 0.0 0.0 0.00 0.01 0.00 91
20260505101942 0 208 3.0 4.0 0.00 0.01 0.00 86
20260505101442 0 11 0.0 1.0 0.00 0.01 0.00 86
20260505100942 0 43 0.0 1.0 0.00 0.01 0.00 86
20260505100442 0 52 0.0 0.0 0.00 0.01 0.00 86
20260505095942 0 52 0.0 0.0 0.00 0.01 0.00 85
20260505095442 0 52 0.0 0.0 0.00 0.01 0.00 85
20260505094942 0 52 0.0 1.0 0.00 0.01 0.00 84
20260505094442 0 64 0.0 0.0 0.00 0.01 0.00 84
20260505093942 0 64 0.0 0.0 0.00 0.01 0.00 81
20260505093442 0 64 0.0 0.0 0.00 0.01 0.00 81
20260505092942 0 85 0.0 2.0 0.00 0.01 0.00 81
20260505092442 0 57 0.0 0.0 0.00 0.01 0.00 82
20260505091942 0 57 0.0 4.0 0.00 0.01 0.00 85
20260505091442 0 165 0.0 4.0 0.00 0.01 0.00 84
20260505090942 0 68 0.0 1.0 0.00 0.01 0.00 85
20260505090442 0 95 0.0 1.0 0.00 0.01 0.00 85
20260505085942 0 135 0.0 2.0 0.00 0.01 0.00 86
20260505085442 0 153 2.0 3.0 0.00 0.01 0.00 84
20260505084942 0 140 0.0 2.0 0.00 0.01 0.00 87
20260505084442 0 104 0.0 2.0 0.00 0.01 0.00 87
20260505083942 0 105 0.0 0.0 0.00 0.01 0.00 87
20260505083442 0 105 0.0 2.0 0.00 0.01 0.00 89
20260505082942 0 158 1.0 3.0 0.00 0.01 0.00 89
20260505082442 0 84 0.0 1.0 0.00 0.01 0.00 90
20260505081942 0 32 0.0 0.0 0.00 0.01 0.00 91
20260505081442 0 32 0.0 0.0 0.00 0.01 0.00 91
20260505080942 0 32 0.0 0.0 0.00 0.01 0.00 92
20260505080442 0 32 0.0 0.0 0.00 0.01 0.00 88
20260505075942 0 32 0.0 1.0 0.00 0.01 0.00 90
20260505075442 0 40 0.0 2.0 0.00 0.01 0.00 90
20260505074943 0 302 0.0 0.0 0.00 0.01 0.00 91
20260505074442 0 302 0.0 1.0 0.00 0.01 0.00 91
20260505073942 0 127 0.0 3.0 0.00 0.01 0.00 91
20260505073442 0 112 0.0 0.0 0.00 0.01 0.00 95
20260505072942 0 112 0.0 2.0 0.00 0.01 0.00 95
20260505072442 0 7 0.0 2.0 0.00 0.01 0.00 95
20260505071942 0 22 0.0 0.0 0.00 0.01 0.00 95
20260505071442 2 22 0.0 1.0 0.00 0.01 0.00 95
20260505070942 -2 220 0.0 1.0 0.00 0.01 0.00 95
20260505070442 -1 338 0.0 3.0 0.00 0.01 0.00 95
20260505065942 2 357 3.0 5.0 0.00 0.01 0.00 95
20260505065442 -1 320 4.0 5.0 0.00 0.01 0.00 95
20260505064942 0 348 3.0 6.0 0.00 0.01 0.00 95
20260505064442 0 343 4.0 6.0 0.00 0.01 0.00 95
20260505063942 -2 323 2.0 5.0 0.00 0.01 0.00 93
20260505063442 0 344 5.0 6.0 0.00 0.01 0.00 96
20260505062942 0 336 5.0 6.0 0.00 0.01 0.00 96
20260505062442 1 350 3.0 6.0 0.00 0.01 0.00 96
20260505061942 1 355 5.0 6.0 0.00 0.01 0.00 96
20260505061442 -1 340 6.0 6.0 0.00 0.01 0.00 96
20260505060942 0 337 6.0 8.0 0.00 0.01 0.00 96
20260505060442 1 344 5.0 8.0 0.00 0.01 0.00 96
20260505055942 0 341 5.0 7.0 0.00 0.01 0.00 96
20260505055442 2 352 5.0 6.0 0.00 0.01 0.00 96
20260505054942 2 351 6.0 7.0 0.00 0.01 0.00 96
20260505054442 2 8 4.0 7.0 0.00 0.01 0.00 96
20260505053942 2 355 6.0 7.0 0.00 0.01 0.00 96
20260505053442 1 2 7.0 7.0 0.00 0.01 0.00 96
20260505052942 1 350 5.0 6.0 0.00 0.01 0.00 96
20260505052442 2 338 5.0 7.0 0.00 0.01 0.00 96
20260505051942 3 344 5.0 6.0 0.00 0.01 0.00 96
20260505051442 3 338 6.0 6.0 0.00 0.01 0.00 96
20260505050942 2 358 3.0 7.0 0.00 0.01 0.00 96
20260505050442 1 341 5.0 6.0 0.00 0.01 0.00 96
20260505041443 1 295 1.0 3.0 0.00 0.01 0.00 95
20260505040943 1 299 0.0 3.0 0.00 0.01 0.00 95
20260505040443 2 350 3.0 5.0 0.00 0.01 0.00 95
20260505035943 2 345 4.0 6.0 0.00 0.01 0.00 95
20260505035443 2 338 6.0 7.0 0.00 0.01 0.00 95
20260505034943 3 355 3.0 4.0 0.00 0.01 0.00 95
20260505034443 2 358 2.0 4.0 0.00 0.01 0.00 95
20260505033943 1 358 4.0 4.0 0.00 0.01 0.00 95
20260505033443 2 5 0.0 4.0 0.00 0.01 0.00 95
20260505032943 2 358 2.0 2.0 0.00 0.01 0.00 95
20260505032443 3 5 0.0 3.0 0.00 0.01 0.00 94
20260505031943 4 336 0.0 2.0 0.00 0.01 0.00 94
20260505031443 3 18 0.0 0.0 0.00 0.01 0.00 94
20260505030943 4 213 0.0 3.0 0.00 0.01 0.00 94
20260505030443 4 25 0.0 1.0 0.00 0.01 0.00 95
20260505025943 4 227 0.0 1.0 0.00 0.01 0.00 95
20260505025443 4 174 0.0 0.0 0.00 0.01 0.00 94
20260505024943 4 174 0.0 0.0 0.00 0.01 0.00 95
20260505024443 4 19 0.0 0.0 0.00 0.01 0.00 95
20260505023943 4 19 0.0 0.0 0.00 0.01 0.00 95
20260505023443 4 19 0.0 1.0 0.00 0.01 0.00 95
20260505022943 4 331 0.0 0.0 0.00 0.01 0.00 95
20260505022443 4 9 0.0 2.0 0.00 0.01 0.00 95
20260505021943 5 348 0.0 0.0 0.00 0.01 0.00 95
20260505021443 4 348 0.0 0.0 0.00 0.01 0.00 95
20260505020943 4 348 0.0 2.0 0.00 0.01 0.00 95
20260505020443 4 337 1.0 2.0 0.00 0.01 0.00 95
20260505015943 3 15 0.0 4.0 0.00 0.01 0.00 95
20260505015443 3 326 2.0 4.0 0.00 0.01 0.00 95
20260505014943 3 327 1.0 1.0 0.00 0.01 0.00 94
20260505014443 4 347 1.0 2.0 0.00 0.01 0.01 95
20260505013943 4 347 1.0 2.0 0.00 0.01 0.01 95
20260505013443 5 345 1.0 2.0 0.00 0.01 0.01 94
20260505012943 5 319 1.0 2.0 0.00 0.01 0.01 94
20260505012443 5 322 0.0 2.0 0.00 0.01 0.01 94
20260505011944 4 319 1.0 1.0 0.00 0.01 0.01 94
20260505011443 6 303 0.0 3.0 0.00 0.01 0.01 94
20260505010943 7 5 1.0 3.0 0.00 0.01 0.01 93
20260505010444 8 39 2.0 3.0 0.00 0.01 0.01 93
20260505005943 8 116 0.0 0.0 0.00 0.01 0.01 92
20260505005443 9 116 0.0 0.0 0.00 0.01 0.01 92
20260505004943 8 116 0.0 3.0 0.00 0.01 0.01 92
20260505004443 8 229 0.0 0.0 0.00 0.01 0.01 92
20260505003943 8 229 0.0 0.0 0.00 0.01 0.01 92
20260505003444 8 229 0.0 0.0 0.00 0.01 0.01 92
20260505002943 8 229 0.0 0.0 0.00 0.01 0.01 93
20260505002443 8 229 0.0 0.0 0.00 0.01 0.01 92
20260505001943 3 229 0.0 2.0 0.00 0.01 0.01 92
20260505001443 8 265 2.0 3.0 0.00 0.01 0.01 91
20260505000943 10 272 2.0 2.0 0.00 0.01 0.01 92
20260505000443 11 5 0.0 0.0 0.00 0.01 0.01 91
20260504235943 11 5 0.0 0.0 0.00 0.01 0.01 92
20260504235443 12 5 0.0 0.0 0.00 0.01 0.01 93
20260504234943 12 5 0.0 0.0 0.00 0.01 0.01 93
20260504234443 10 5 0.0 0.0 0.00 0.01 0.01 93
20260504233943 10 5 0.0 0.0 0.00 0.01 0.01 92
20260504233443 11 5 0.0 0.0 0.00 0.01 0.01 92
20260504232943 12 5 0.0 0.0 0.00 0.01 0.01 92
20260504232443 11 5 0.0 0.0 0.00 0.01 0.01 92
20260504231943 12 5 0.0 0.0 0.00 0.01 0.01 92
20260504231443 12 5 0.0 0.0 0.00 0.01 0.01 92
20260504230943 14 5 0.0 0.0 0.00 0.01 0.01 92
20260504230443 -4 5 0.0 0.0 0.00 0.01 0.01 93
20260504225943 -4 5 0.0 0.0 0.00 0.01 0.01 93
20260504225443 -6 5 0.0 0.0 0.00 0.01 0.01 92
20260504224943 -2 5 0.0 2.0 0.00 0.01 0.01 92
20260504224443 1 354 2.0 2.0 0.00 0.01 0.01 92
20260504223943 2 319 2.0 2.0 0.00 0.01 0.01 91
20260504223443 2 87 0.0 0.0 0.00 0.01 0.01 91
20260504222943 4 87 0.0 0.0 0.00 0.01 0.01 91
20260504222443 3 87 0.0 0.0 0.00 0.01 0.01 91
20260504221944 2 87 0.0 0.0 0.00 0.01 0.01 92
20260504221443 3 87 0.0 3.0 0.00 0.01 0.01 92
20260504220943 5 347 0.0 0.0 0.00 0.01 0.01 92
20260504220444 2 347 0.0 0.0 0.00 0.01 0.01 91
20260504215944 6 347 0.0 2.0 0.00 0.01 0.01 91
20260504215444 7 329 0.0 1.0 0.00 0.01 0.01 91
20260504214944 6 286 0.0 0.0 0.00 0.01 0.01 91
20260504214444 8 286 0.0 0.0 0.00 0.01 0.01 91
20260504213944 9 286 0.0 0.0 0.00 0.01 0.01 90
20260504213444 9 286 0.0 1.0 0.00 0.01 0.01 90
20260504212944 11 151 0.0 2.0 0.00 0.01 0.01 90
20260504212444 12 109 0.0 0.0 0.00 0.01 0.01 89
20260504211944 13 109 0.0 0.0 0.00 0.01 0.01 89
20260504211444 11 109 0.0 0.0 0.00 0.01 0.01 90
20260504210944 10 109 0.0 0.0 0.00 0.01 0.01 90
20260504210444 12 109 0.0 0.0 0.00 0.01 0.01 90
20260504205944 12 109 0.0 0.0 0.00 0.01 0.01 90
20260504205444 13 109 0.0 0.0 0.00 0.01 0.01 90
20260504204944 12 109 0.0 0.0 0.00 0.01 0.01 89
20260504204444 13 109 0.0 0.0 0.00 0.01 0.01 89
20260504203944 13 109 0.0 0.0 0.00 0.01 0.01 90
20260504203444 12 109 0.0 0.0 0.00 0.01 0.01 90
20260504202944 11 109 0.0 0.0 0.00 0.01 0.01 89
20260504202444 12 109 0.0 0.0 0.00 0.01 0.01 88
20260504201944 12 109 0.0 0.0 0.00 0.01 0.01 88
20260504201444 13 109 0.0 0.0 0.00 0.01 0.01 89
20260504200944 13 109 0.0 0.0 0.00 0.01 0.01 88
20260504200444 13 109 0.0 0.0 0.00 0.01 0.01 89
20260504195944 13 109 0.0 0.0 0.00 0.01 0.01 89
20260504195444 13 109 0.0 0.0 0.00 0.01 0.01 88
20260504194944 13 109 0.0 0.0 0.00 0.01 0.01 88
20260504194444 0 109 0.0 0.0 0.00 0.01 0.01 89
20260504193944 0 109 0.0 0.0 0.00 0.01 0.01 88
20260504193444 0 109 0.0 0.0 0.00 0.01 0.01 89
20260504192944 0 109 0.0 0.0 0.00 0.01 0.01 88
20260504192444 0 109 0.0 1.0 0.00 0.01 0.01 88
20260504191944 0 68 0.0 3.0 0.00 0.01 0.01 87
20260504191444 0 137 0.0 0.0 0.00 0.01 0.01 88
20260504190944 0 137 0.0 0.0 0.00 0.01 0.01 87
20260504190444 0 137 0.0 0.0 0.00 0.01 0.01 87
20260504185944 0 137 0.0 0.0 0.00 0.01 0.01 86
20260504185444 0 137 0.0 0.0 0.00 0.01 0.01 86
20260504184944 0 137 0.0 0.0 0.00 0.01 0.01 86
20260504184444 0 137 0.0 0.0 0.00 0.01 0.01 86
20260504183944 0 137 0.0 0.0 0.00 0.01 0.01 85
20260504183444 0 137 0.0 0.0 0.00 0.01 0.01 85
20260504182944 0 137 0.0 0.0 0.00 0.01 0.01 86
20260504182444 0 137 0.0 0.0 0.00 0.01 0.01 85
20260504181944 0 137 0.0 0.0 0.00 0.01 0.01 86
20260504181444 0 137 0.0 0.0 0.00 0.01 0.01 87
20260504180944 0 137 0.0 0.0 0.00 0.01 0.01 86
20260504180444 0 137 0.0 0.0 0.00 0.01 0.01 86
20260504175944 0 137 0.0 0.0 0.00 0.01 0.01 85
20260504175444 0 137 0.0 0.0 0.00 0.01 0.01 86
20260504174944 0 137 0.0 0.0 0.00 0.01 0.01 85
20260504174444 0 137 0.0 0.0 0.00 0.01 0.01 85
20260504173944 0 137 0.0 0.0 0.00 0.01 0.01 85
20260504173444 0 137 0.0 0.0 0.00 0.01 0.01 85
20260504172944 0 137 0.0 0.0 0.00 0.01 0.01 84
20260504172444 0 137 0.0 0.0 0.00 0.01 0.01 85
20260504171944 0 137 0.0 0.0 0.00 0.01 0.01 84
20260504171444 0 137 0.0 0.0 0.00 0.01 0.01 84
20260504170944 0 137 0.0 2.0 0.00 0.01 0.01 83
20260504170444 0 60 0.0 1.0 0.00 0.01 0.01 83
20260504160444 0 149 0.0 0.0 0.00 0.01 0.01 82
20260504150945 0 296 0.0 2.0 0.00 0.01 0.01 85
20260504150445 0 240 0.0 4.0 0.00 0.01 0.01 85
20260504140945 0 320 0.0 5.0 0.01 0.01 0.01 83
20260504140445 0 289 3.0 4.0 0.01 0.01 0.01 83